Station PSBC1 - 9415115 - Pittsburg (Suisun Bay), CA Image indicating link to RSS feed of recent meteorological observations for station PSBC1


Conditions at PSBC1 as of
(10:18 pm PDT on 04/14/2024)
0518 GMT on 04/15/2024:
     

Click on the graph icon in the table below to see a time series plot of the last five days of that observation.

5-day plot - Wind Direction Wind Direction (WDIR): W ( 280 deg true )
5-day plot - Wind Speed Wind Speed (WSPD): 6.0 kts
5-day plot - Wind Gust Wind Gust (GST): 11.1 kts
5-day plot - Atmospheric Pressure Atmospheric Pressure (PRES):30.13 in
5-day plot - Air Temperature Air Temperature (ATMP): 54.1 °F
5-day plot - Wind Speed at 10 Meters Wind Speed at 10 meters (WSPD10M): 5.8 kts
5-day plot - Wind Speed at 20 Meters Wind Speed at 20 meters (WSPD20M): 7.8 kts
5-day plot -  Wind Speed, Wind Gust and Atmospheric Pressure Combined plot of Wind Speed, Gust, and Air Pressure
NOS Water Level Observation Network Water Level
Previous observations
TIME
(PDT)
5-day plot - Wind Direction
WDIR
 
5-day plot - Wind Speed
WSPD
kts
5-day plot - Wind Gust
GST
kts
5-day plot - Wave Height
WVHT
ft
5-day plot - Dominant Wave Period
DPD
sec
5-day plot - Average Wave Period
APD
sec
5-day plot - Mean Wave Direction
MWD
 
5-day plot - Atmospheric Pressure
PRES
in
5-day plot - Pressure Tendency
PTDY
in
5-day plot - Air Temperature
ATMP
°F
5-day plot - Water Temperature
WTMP
°F
5-day plot - Dew Point
DEWP
°F
5-day plot - Salinity
SAL
psu
5-day plot - Visibility
VIS
nmi
5-day plot - Tide (above MLLW)
TIDE
ft
2024-04-14 10:12 pmWNW 7.0 9.9----30.14- 54.1-----
2024-04-14 10:06 pmWNW 8.0 12.0----30.13- 54.3-----
2024-04-14 10:00 pmWNW 8.0 11.1----30.13+0.03 54.3-----
2024-04-14 09:54 pmWNW 8.0 12.0----30.13- 54.3-----
2024-04-14 09:48 pmWNW 8.9 12.0----30.14- 54.3-----
2024-04-14 09:42 pmWNW 8.9 13.0----30.13- 54.5-----
2024-04-14 09:36 pmWNW 8.9 13.0----30.13- 54.7-----
2024-04-14 09:30 pmWNW 8.0 11.1----30.13- 54.7-----
2024-04-14 09:24 pmWNW 9.9 12.0----30.13- 54.7-----
2024-04-14 09:18 pmWNW 7.0 11.1----30.13- 54.9-----
2024-04-14 09:12 pmWNW 8.0 12.0----30.13- 54.9-----
2024-04-14 09:06 pmWNW 8.9 12.0----30.13- 55.0-----
2024-04-14 09:00 pmWNW 8.0 12.0----30.13+0.04 55.0-----
2024-04-14 08:54 pmWNW 8.9 12.0----30.13- 55.0-----
2024-04-14 08:48 pmWNW 9.9 12.0----30.13- 55.2-----
2024-04-14 08:42 pmWNW 9.9 13.0----30.12- 55.2-----
2024-04-14 08:36 pmWNW 9.9 13.0----30.12- 55.4-----
2024-04-14 08:30 pmWNW 9.9 13.0----30.12- 55.6-----
2024-04-14 08:24 pm W 8.0 12.0----30.12- 55.9-----
2024-04-14 08:18 pmWNW 7.0 11.1----30.12- 56.3-----
2024-04-14 08:12 pmWNW 8.9 13.0----30.11- 56.5-----
2024-04-14 08:06 pmWNW 8.9 13.0----30.11- 56.7-----
2024-04-14 08:00 pmWNW 7.0 12.0----30.11-0.01 56.7-----
2024-04-14 07:54 pm W 8.0 13.0----30.11- 56.7-----
2024-04-14 07:48 pmWNW 9.9 14.0----30.11- 56.8-----
2024-04-14 07:42 pmWNW 9.9 15.0----30.11- 57.2-----
2024-04-14 07:36 pmWNW 8.0 9.9----30.11- 57.4-----
2024-04-14 07:30 pmWNW 7.0 11.1----30.10- 57.4-----
2024-04-14 07:24 pmWNW 8.9 13.0----30.10- 57.4-----
2024-04-14 07:18 pmWNW 8.9 13.0----30.10- 57.6-----
2024-04-14 07:12 pmWNW 11.1 13.0----30.10- 57.7-----
2024-04-14 07:06 pmWNW 8.0 9.9----30.10- 57.7-----
2024-04-14 07:00 pmWNW 8.9 11.1----30.10-0.02 57.7-----
2024-04-14 06:54 pmWNW 8.0 12.0----30.10- 57.7-----
2024-04-14 06:48 pm NW 8.0 11.1----30.10- 57.7-----
2024-04-14 06:42 pm NW 7.0 11.1----30.10- 57.7-----
2024-04-14 06:36 pm NW 8.0 12.0----30.10- 57.7-----
2024-04-14 06:30 pm NW 8.9 12.0----30.10- 58.1-----
2024-04-14 06:24 pm NW 8.9 13.0----30.10- 58.1-----
2024-04-14 06:18 pm NW 8.9 13.0----30.10- 58.3-----
2024-04-14 06:12 pm NW 8.9 12.0----30.09- 58.3-----
2024-04-14 06:06 pmNNW 6.0 8.9----30.10- 58.5-----
2024-04-14 06:00 pmNNW 4.1 5.1----30.10-0.04 58.6-----
2024-04-14 05:54 pm NW 2.9 4.1----30.10- 58.6-----
2024-04-14 05:48 pm NW 2.9 4.1----30.10-------
2024-04-14 05:42 pm NW 1.9 4.1----30.10-------
2024-04-14 05:36 pmNNW 2.9 6.0----30.10-------
2024-04-14 05:30 pm-------30.11- 58.3-----
2024-04-14 05:24 pm-------30.11- 58.6-----
2024-04-14 05:18 pm N 5.1 6.0------ 58.1-----
2024-04-14 05:12 pm NW 2.9 4.1------ 58.3-----
2024-04-14 05:06 pmNNW 4.1 5.1------ 57.7-----
2024-04-14 05:00 pm N 2.9 6.0----30.12-0.03 57.4-----
2024-04-14 04:54 pmENE 1.9 5.1----30.12- 57.4-----
2024-04-14 04:48 pm NW 4.1 5.1----30.12- 58.8-----
2024-04-14 04:42 pmNNW 2.9 4.1----30.12- 58.1-----
2024-04-14 04:36 pm NW 1.9 5.1----30.12- 58.5-----
2024-04-14 04:30 pm NW 2.9 5.1----30.12- 58.3-----
2024-04-14 04:24 pmWNW 5.1 6.0----30.12- 57.4-----
2024-04-14 04:18 pm NW 4.1 6.0----30.12- 57.9-----
2024-04-14 04:12 pmENE 2.9 5.1----30.12- 56.5-----
2024-04-14 04:06 pm- 0.0 1.9----30.12- 57.7-----
2024-04-14 04:00 pm N 1.0 1.9----30.12-0.02------
2024-04-14 03:54 pm N 1.9 2.9----30.12-------
2024-04-14 03:48 pm- 0.0 2.9----30.12- 57.4-----
2024-04-14 03:42 pm N 1.9 2.9----30.13- 56.3-----
2024-04-14 03:36 pm N 1.9 2.9----30.13- 56.1-----
2024-04-14 03:30 pmNNW 1.9 2.9----30.13- 55.8-----
2024-04-14 03:24 pm N 1.9 4.1----30.13- 55.4-----
2024-04-14 03:18 pmNNE 2.9 5.1----30.13- 54.7-----
2024-04-14 03:12 pmNNE 4.1 4.1----30.13- 54.3-----
2024-04-14 03:06 pm NE 2.9 2.9----30.13- 54.7-----
2024-04-14 03:00 pm NE 1.0 1.9----30.13+0.00 55.0-----
2024-04-14 02:54 pm- 0.0 1.9----30.13- 54.7-----
2024-04-14 02:48 pm E 1.0 1.9----30.13-------
2024-04-14 02:42 pm E 1.9 2.9----30.13-------
2024-04-14 02:36 pm E 1.9 2.9----30.13-------
2024-04-14 02:30 pm- 0.0 1.0----30.13-------
2024-04-14 02:24 pm N 1.0 2.9----30.13-------
2024-04-14 02:18 pmNNE 2.9 4.1----30.14- 53.2-----
2024-04-14 02:12 pmNNE 1.9 2.9----30.14- 53.2-----
2024-04-14 02:06 pm NE 1.9 4.1----30.14- 52.9-----
2024-04-14 02:00 pmNNE 2.9 5.1----30.14+0.02 52.9-----
2024-04-14 01:54 pmNNE 4.1 5.1----30.15- 52.5-----
2024-04-14 01:48 pmNNE 5.1 6.0----30.15- 52.3-----
2024-04-14 01:42 pmNNE 2.9 5.1----30.15- 52.3-----
2024-04-14 01:36 pmNNE 4.1 4.1----30.14- 52.3-----
2024-04-14 01:30 pmNNE 4.1 5.1----30.14- 52.2-----
2024-04-14 01:24 pmNNE 2.9 4.1----30.14- 52.2-----
2024-04-14 01:18 pm NE 2.9 4.1----30.14- 52.2-----
2024-04-14 01:12 pmNNE 1.0 1.9----30.14- 52.3-----
2024-04-14 01:06 pm N 1.9 2.9----30.14- 52.2-----
2024-04-14 01:00 pm NE 1.9 2.9----30.14+0.03 51.8-----
2024-04-14 12:54 pmNNE 2.9 2.9----30.14- 51.6-----
2024-04-14 12:48 pmNNE 2.9 2.9----30.14- 51.4-----
2024-04-14 12:42 pmNNE 2.9 4.1----30.14- 51.1-----
2024-04-14 12:36 pm NE 4.1 4.1----30.14- 50.9-----
2024-04-14 12:30 pmENE 2.9 5.1----30.14- 50.9-----
2024-04-14 12:24 pmENE 4.1 5.1----30.14- 50.9-----
2024-04-14 12:18 pm NE 2.9 5.1----30.13- 51.1-----
2024-04-14 12:12 pmENE 1.9 4.1----30.13- 51.1-----
2024-04-14 12:06 pmESE 2.9 5.1----30.13- 50.7-----
2024-04-14 12:00 pmESE 5.1 7.0----30.13+0.04------
2024-04-14 11:54 am SE 5.1 7.0----30.13-------
2024-04-14 11:48 amESE 5.1 7.0----30.13- 50.0-----
2024-04-14 11:42 am E 5.1 7.0----30.13- 50.0-----
2024-04-14 11:36 am E 5.1 8.0----30.13- 50.0-----
2024-04-14 11:30 amESE 4.1 6.0----30.13- 49.8-----
2024-04-14 11:24 amESE 5.1 7.0----30.13- 49.8-----
2024-04-14 11:18 am E 5.1 7.0----30.13- 49.8-----
2024-04-14 11:12 am E 4.1 7.0----30.13- 49.8-----
2024-04-14 11:06 am E 7.0 8.9----30.13- 49.8-----
2024-04-14 11:00 amENE 8.0 9.9----30.13+0.04 50.0-----
2024-04-14 10:54 amENE 7.0 8.9----30.12- 49.6-----
2024-04-14 10:48 amENE 7.0 8.0----30.13- 49.5-----
2024-04-14 10:42 amENE 6.0 8.0----30.12- 49.6-----
2024-04-14 10:36 am E 5.1 8.9----30.13- 49.3-----
2024-04-14 10:30 amENE 6.0 8.0----30.12- 49.1-----
2024-04-14 10:24 amENE 6.0 8.0----30.12- 48.9-----
2024-04-14 10:18 am E 5.1 8.0----30.12- 49.1-----
2024-04-14 10:12 am E 6.0 8.0----30.12- 48.9-----
2024-04-14 10:06 am E 7.0 8.0----30.11- 49.1-----
2024-04-14 10:00 am E 7.0 11.1----30.11+0.06 48.9-----
2024-04-14 09:54 am E 8.0 9.9----30.11- 48.9-----
2024-04-14 09:48 amESE 8.0 9.9----30.11-------
2024-04-14 09:42 am E 8.0 9.9----30.10-------
2024-04-14 09:36 am E 8.0 9.9----30.11-------
2024-04-14 09:30 amESE 8.0 9.9----30.10-------
2024-04-14 09:24 amESE 7.0 11.1----30.10-------
2024-04-14 09:18 am E 8.0 11.1----30.10- 48.2-----
2024-04-14 09:12 am E 8.9 11.1----30.10- 47.8-----
2024-04-14 09:06 amESE 8.9 11.1----30.09- 48.2-----
2024-04-14 09:00 am E 8.0 11.1----30.09+0.07 48.0-----
2024-04-14 08:54 am E 9.9 12.0----30.09- 47.8-----
2024-04-14 08:48 amESE 8.9 14.0----30.09- 47.7-----
2024-04-14 08:42 am E 12.0 14.0----30.09- 47.7-----
2024-04-14 08:36 am E 12.0 14.0----30.09- 47.8-----
2024-04-14 08:30 am E 12.0 14.0----30.09-------
2024-04-14 08:24 amENE 12.0 15.0----30.09-------
2024-04-14 08:18 am E 11.1 13.0----30.09-------
2024-04-14 08:12 am E 12.0 14.0----30.09-------
2024-04-14 08:06 amESE 9.9 12.0----30.09-------
2024-04-14 08:00 amESE 11.1 12.0----30.09+0.08 47.8-----
2024-04-14 07:54 am E 13.0 15.9----30.08- 48.4-----
2024-04-14 07:48 amESE 8.9 12.0----30.08- 47.8-----
2024-04-14 07:42 am SE 7.0 12.0----30.08- 48.2-----
2024-04-14 07:36 am SE 8.9 13.0----30.08- 47.8-----
2024-04-14 07:30 am SE 9.9 13.0----30.07- 47.8-----
2024-04-14 07:24 amESE 11.1 12.0----30.07- 47.8-----
2024-04-14 07:18 amESE 9.9 13.0----30.07- 48.0-----
2024-04-14 07:12 amESE 8.9 11.1----30.06- 48.0-----
2024-04-14 07:06 amESE 8.0 11.1----30.06- 47.7-----
2024-04-14 07:00 amESE 8.9 12.0----30.05+0.04------
2024-04-14 06:54 am SE 8.9 11.1----30.05-------
2024-04-14 06:48 amESE 8.0 13.0----30.04- 47.3-----
2024-04-14 06:42 amESE 9.9 12.0----30.03- 47.5-----
2024-04-14 06:36 am SE 9.9 12.0----30.03- 47.3-----
2024-04-14 06:30 am SE 9.9 15.9----30.02-------
2024-04-14 06:24 am SE 12.0 14.0----30.02-------
2024-04-14 06:18 am SE 11.1 13.0----30.02- 46.8-----
2024-04-14 06:12 am SE 11.1 14.0----30.02- 46.8-----
2024-04-14 06:06 am SE 11.1 14.0----30.02- 46.8-----
2024-04-14 06:00 am SE 12.0 15.0----30.02- 46.4-----
2024-04-14 05:54 am SE 9.9 14.0----30.02- 46.6-----
2024-04-14 05:48 am-------30.01- 46.6-----
2024-04-14 05:42 am-------30.01- 46.6-----
2024-04-14 05:36 am-------30.01- 46.9-----
2024-04-14 05:30 am SE 12.0 15.9----30.01-------
2024-04-14 05:24 am SE 13.0 19.0----30.01-------
2024-04-14 05:18 am SE 14.0 15.9----30.01- 46.9-----
2024-04-14 05:12 am SE 14.0 17.1----30.01- 46.8-----
2024-04-14 05:06 am SE 13.0 15.9----30.01- 46.6-----
2024-04-14 05:00 am SE 13.0 17.1----30.01+0.01------
2024-04-14 04:54 am SE 13.0 15.9----30.01-------
2024-04-14 04:48 am SE 14.0 18.1----30.01-------
2024-04-14 04:42 amSSE 15.0 18.1----30.00-------
2024-04-14 04:36 am SE 15.9 18.1----30.01-------
2024-04-14 04:30 am SE 12.0 15.9----30.01- 47.3-----
2024-04-14 04:24 am SE 13.0 18.1----30.01- 47.1-----
2024-04-14 04:18 am SE 15.9 18.1----30.01-------
2024-04-14 04:12 am SE 12.0 17.1----30.01-------
2024-04-14 04:06 am SE 15.0 18.1----30.01-------
2024-04-14 04:00 am SE 13.0 19.0----30.01+0.02 47.7-----
2024-04-14 03:54 amESE 14.0 15.9----30.01- 47.7-----
2024-04-14 03:48 am SE 13.0 15.9----30.01-------
2024-04-14 03:42 amESE 11.1 15.0----30.01-------
2024-04-14 03:36 amESE 14.0 18.1----30.01-------
2024-04-14 03:30 amESE 12.0 19.0----30.01- 47.3-----
2024-04-14 03:24 amESE 13.0 15.9----30.01- 46.9-----
2024-04-14 03:18 amESE 15.0 18.1----30.01- 47.1-----
2024-04-14 03:12 amESE 17.1 19.0----30.00- 47.5-----
2024-04-14 03:06 am E 18.1 21.0----30.00- 47.1-----
2024-04-14 03:00 am E 15.9 18.1------ 47.1-----
2024-04-14 02:54 amESE 13.0 18.1------ 47.1-----
2024-04-14 02:48 am E 15.9 20.0------ 47.1-----
2024-04-14 02:42 am E 17.1 20.0------ 46.9-----
2024-04-14 02:36 amESE 15.0 19.0------ 46.6-----
2024-04-14 02:30 amESE 14.0 20.0----29.99-------
2024-04-14 02:24 amESE 17.1 20.0----29.99-------
2024-04-14 02:18 amESE 15.9 19.0----29.99- 46.6-----
2024-04-14 02:12 amESE 14.0 18.1----29.99- 47.1-----
2024-04-14 02:06 amESE 14.0 17.1----30.00- 47.1-----
2024-04-14 02:00 am E 14.0 18.1----30.00+0.04 46.6-----
2024-04-14 01:54 am E 14.0 18.1----30.00- 46.2-----
2024-04-14 01:48 am E 14.0 17.1----30.00- 46.2-----
2024-04-14 01:42 am E 14.0 19.0----30.00- 46.9-----
2024-04-14 01:36 amESE 14.0 15.9----30.00- 46.8-----
2024-04-14 01:30 amESE 14.0 17.1----29.99- 46.8-----
2024-04-14 01:24 amESE 15.0 18.1----29.99- 46.8-----
2024-04-14 01:18 amESE 14.0 17.1----29.99- 46.8-----
2024-04-14 01:12 amESE 15.0 18.1----29.99- 46.6-----
2024-04-14 01:06 amESE 14.0 19.0----29.99- 47.1-----
2024-04-14 01:00 amESE 14.0 19.0----29.99+0.03 47.1-----
2024-04-14 12:54 am SE 13.0 15.9----29.98- 46.9-----
2024-04-14 12:48 amESE 15.0 19.0----29.98- 47.1-----
2024-04-14 12:42 amESE 14.0 18.1----29.98- 46.8-----
2024-04-14 12:36 amESE 14.0 17.1----29.98- 47.1-----
2024-04-14 12:30 amESE 14.0 17.1----29.98- 46.9-----
2024-04-14 12:24 amESE 15.0 19.0----29.98- 46.9-----
2024-04-14 12:18 amESE 15.9 19.0----29.98- 47.3-----
2024-04-14 12:12 amESE 17.1 21.0----29.98- 47.1-----
2024-04-14 12:06 amESE 15.9 19.0----29.98- 47.1-----
2024-04-14 12:00 amESE 15.0 19.0----29.98+0.00 47.3-----
2024-04-13 11:54 pmESE 17.1 20.0----29.97- 46.9-----
2024-04-13 11:48 pmESE 18.1 20.0----29.97- 46.9-----
2024-04-13 11:42 pmESE 15.9 19.0----29.97- 46.9-----
2024-04-13 11:36 pmESE 15.9 18.1----29.96- 47.1-----
2024-04-13 11:30 pmESE 14.0 17.1----29.96- 47.1-----
2024-04-13 11:24 pmESE 9.9 13.0----29.97- 46.8-----
2024-04-13 11:18 pm SE 8.0 13.0----29.96- 46.9-----
2024-04-13 11:12 pm SE 8.9 12.0----29.96- 46.8-----
2024-04-13 11:06 pm SE 8.9 11.1----29.96- 46.8-----
2024-04-13 11:00 pm SE 9.9 13.0----29.96-0.01 47.5-----
2024-04-13 10:54 pm SE 11.1 15.0----29.96- 47.3-----